TimeCDT,TemperatureF,Dew PointF,Humidity,Sea Level PressureIn,VisibilityMPH,Wind Direction,Wind SpeedMPH,Gust SpeedMPH,PrecipitationIn,Events,Conditions,WindDirDegrees,DateUTC
12:15 AM,41.0,41.0,100,30.00,10.0,Calm,Calm,-,N/A,,Clear,0,2012-11-02 05:15:00
12:35 AM,41.0,39.2,93,30.00,10.0,Calm,Calm,-,N/A,,Clear,0,2012-11-02 05:35:00
12:55 AM,41.0,41.0,100,30.00,10.0,Calm,Calm,-,N/A,,Clear,0,2012-11-02 05:55:00
1:15 AM,41.0,41.0,100,30.00,10.0,Calm,Calm,-,N/A,,Clear,0,2012-11-02 06:15:00
1:35 AM,41.0,41.0,100,30.00,10.0,Calm,Calm,-,N/A,,Clear,0,2012-11-02 06:35:00
1:55 AM,41.0,41.0,100,30.00,10.0,Calm,Calm,-,N/A,,Clear,0,2012-11-02 06:55:00
2:15 AM,41.0,39.2,93,30.00,10.0,Calm,Calm,-,N/A,,Clear,0,2012-11-02 07:15:00
2:55 AM,41.0,41.0,100,29.99,10.0,Calm,Calm,-,N/A,,Clear,0,2012-11-02 07:55:00
3:15 AM,41.0,41.0,100,29.99,10.0,Calm,Calm,-,N/A,,Clear,0,2012-11-02 08:15:00
3:35 AM,41.0,41.0,100,29.99,7.0,Calm,Calm,-,N/A,,Clear,0,2012-11-02 08:35:00
3:55 AM,41.0,39.2,93,29.99,7.0,Calm,Calm,-,N/A,,Clear,0,2012-11-02 08:55:00
4:15 AM,41.0,41.0,100,29.98,10.0,Calm,Calm,-,N/A,,Clear,0,2012-11-02 09:15:00
4:35 AM,41.0,39.2,93,29.99,10.0,Calm,Calm,-,N/A,,Clear,0,2012-11-02 09:35:00
4:55 AM,41.0,41.0,100,29.99,10.0,Calm,Calm,-,N/A,,Clear,0,2012-11-02 09:55:00
5:15 AM,41.0,41.0,100,29.99,7.0,Calm,Calm,-,N/A,,Clear,0,2012-11-02 10:15:00
5:35 AM,41.0,41.0,100,29.99,10.0,Calm,Calm,-,N/A,,Clear,0,2012-11-02 10:35:00
5:55 AM,41.0,41.0,100,29.99,10.0,Calm,Calm,-,N/A,,Clear,0,2012-11-02 10:55:00
6:35 AM,41.0,41.0,100,29.99,5.0,Calm,Calm,-,N/A,,Clear,0,2012-11-02 11:35:00
6:55 AM,41.0,39.2,93,29.99,5.0,Calm,Calm,-,N/A,,Clear,0,2012-11-02 11:55:00
7:15 AM,41.0,41.0,100,29.99,10.0,Calm,Calm,-,N/A,,Clear,0,2012-11-02 12:15:00
7:35 AM,41.0,41.0,100,29.99,7.0,Calm,Calm,-,N/A,,Clear,0,2012-11-02 12:35:00
7:55 AM,42.8,42.8,100,30.00,10.0,Calm,Calm,-,N/A,,Clear,0,2012-11-02 12:55:00
8:15 AM,44.6,44.6,100,30.00,10.0,Calm,Calm,-,N/A,,Clear,0,2012-11-02 13:15:00
8:55 AM,53.6,50.0,88,30.01,10.0,Calm,Calm,-,N/A,,Clear,0,2012-11-02 13:55:00
9:35 AM,60.8,53.6,77,30.02,10.0,Calm,Calm,-,N/A,,Clear,0,2012-11-02 14:35:00
9:55 AM,62.6,53.6,72,30.03,10.0,SW,4.6,-,N/A,,Clear,230,2012-11-02 14:55:00
10:15 AM,64.4,55.4,73,30.02,10.0,SW,3.5,-,N/A,,Clear,230,2012-11-02 15:15:00
10:35 AM,68.0,55.4,64,30.02,10.0,Calm,Calm,-,N/A,,Clear,0,2012-11-02 15:35:00
11:15 AM,71.6,59.0,64,30.02,10.0,Calm,Calm,-,N/A,,Clear,0,2012-11-02 16:15:00
11:35 AM,73.4,59.0,61,30.01,10.0,NW,3.5,-,N/A,,Clear,310,2012-11-02 16:35:00
11:55 AM,75.2,59.0,57,30.01,10.0,NW,3.5,-,N/A,,Clear,310,2012-11-02 16:55:00
12:15 PM,77.0,59.0,54,30.01,10.0,NW,4.6,-,N/A,,Clear,310,2012-11-02 17:15:00
12:35 PM,78.8,57.2,47,30.00,10.0,West,3.5,-,N/A,,Clear,270,2012-11-02 17:35:00
12:55 PM,78.8,55.4,44,29.99,10.0,NNW,3.5,-,N/A,,Clear,340,2012-11-02 17:55:00
1:15 PM,78.8,55.4,44,29.98,10.0,Calm,Calm,-,N/A,,Clear,0,2012-11-02 18:15:00
1:55 PM,80.6,53.6,39,29.97,10.0,WSW,3.5,-,N/A,,Clear,240,2012-11-02 18:55:00
2:15 PM,80.6,55.4,42,29.96,10.0,West,4.6,-,N/A,,Clear,270,2012-11-02 19:15:00
2:35 PM,80.6,53.6,39,29.96,10.0,Calm,Calm,-,N/A,,Clear,0,2012-11-02 19:35:00
2:55 PM,80.6,53.6,39,29.96,10.0,SW,4.6,-,N/A,,Clear,220,2012-11-02 19:55:00
3:15 PM,80.6,53.6,39,29.96,10.0,WNW,4.6,-,N/A,,Clear,290,2012-11-02 20:15:00
4:15 PM,80.6,53.6,39,29.96,10.0,West,3.5,-,N/A,,Clear,260,2012-11-02 21:15:00
4:35 PM,80.6,55.4,42,29.96,10.0,Calm,Calm,-,N/A,,Clear,0,2012-11-02 21:35:00
4:55 PM,80.6,53.6,39,29.96,10.0,Calm,Calm,-,N/A,,Clear,0,2012-11-02 21:55:00
5:15 PM,78.8,55.4,44,29.96,10.0,Calm,Calm,-,N/A,,Clear,0,2012-11-02 22:15:00
5:35 PM,75.2,59.0,57,29.96,10.0,Calm,Calm,-,N/A,,Clear,0,2012-11-02 22:35:00
5:55 PM,69.8,59.0,68,29.97,10.0,Calm,Calm,-,N/A,,Clear,0,2012-11-02 22:55:00
6:15 PM,68.0,59.0,73,29.97,10.0,Calm,Calm,-,N/A,,Clear,0,2012-11-02 23:15:00
6:35 PM,64.4,59.0,83,29.98,10.0,Calm,Calm,-,N/A,,Clear,0,2012-11-02 23:35:00
6:55 PM,62.6,59.0,88,29.98,10.0,Calm,Calm,-,N/A,,Clear,0,2012-11-02 23:55:00
7:55 PM,60.8,57.2,88,29.99,10.0,Calm,Calm,-,N/A,,Clear,0,2012-11-03 00:55:00
8:15 PM,59.0,57.2,94,30.00,10.0,Calm,Calm,-,N/A,,Clear,0,2012-11-03 01:15:00
8:35 PM,59.0,55.4,88,30.00,10.0,Calm,Calm,-,N/A,,Clear,0,2012-11-03 01:35:00
8:55 PM,59.0,57.2,94,30.00,10.0,Calm,Calm,-,N/A,,Clear,0,2012-11-03 01:55:00
9:15 PM,57.2,55.4,94,30.01,10.0,Calm,Calm,-,N/A,,Clear,0,2012-11-03 02:15:00
9:35 PM,57.2,55.4,94,30.01,10.0,Calm,Calm,-,N/A,,Clear,0,2012-11-03 02:35:00
9:55 PM,55.4,53.6,94,30.01,10.0,Calm,Calm,-,N/A,,Clear,0,2012-11-03 02:55:00
10:15 PM,55.4,53.6,94,30.01,7.0,Calm,Calm,-,N/A,,Clear,0,2012-11-03 03:15:00
10:35 PM,55.4,53.6,94,30.01,4.0,Calm,Calm,-,N/A,,Clear,0,2012-11-03 03:35:00
10:55 PM,53.6,53.6,100,30.01,7.0,Calm,Calm,-,N/A,,Clear,0,2012-11-03 03:55:00
11:15 PM,53.6,53.6,100,30.01,0.5,Calm,Calm,-,N/A,Fog,Fog,0,2012-11-03 04:15:00
11:35 PM,53.6,53.6,100,30.01,0.5,Calm,Calm,-,N/A,Fog,Fog,0,2012-11-03 04:35:00